| time (UTC) | temp F | wind direction | speed knots | gust knots | rain 1hr in | rain 24hr in | rain mn in | humidity % | barometer mb |
| 20260506024602 | 58 | 201 | 1.7 | 6.1 | 0.00 | 0.00 | 0.00 | 78 | 1007.9 |
| 20260506023102 | 58 | 0 | 1.7 | 6.1 | 0.00 | 0.00 | 0.00 | 78 | 1007.9 |
| 20260506021557 | 58 | 111 | 0.9 | 4.3 | 0.00 | 0.00 | 0.00 | 79 | 1008.0 |
| 20260506020044 | 58 | 0 | 0.0 | 3.5 | 0.00 | 0.00 | 0.00 | 79 | 1008.2 |
| 20260506014547 | 58 | 0 | 0.0 | 2.6 | 0.00 | 0.00 | 0.00 | 79 | 1008.3 |
| 20260506013048 | 58 | 241 | 0.9 | 5.2 | 0.00 | 0.00 | 0.00 | 78 | 1008.6 |
| 20260506011609 | 58 | 164 | 0.9 | 4.3 | 0.00 | 0.00 | 0.00 | 77 | 1008.1 |
| 20260506010040 | 59 | 232 | 1.7 | 5.2 | 0.00 | 0.00 | 0.00 | 76 | 1007.8 |
| 20260506004545 | 60 | 188 | 0.9 | 5.2 | 0.00 | 0.00 | 0.00 | 75 | 1007.4 |
| 20260506003046 | 60 | 265 | 0.9 | 3.5 | 0.00 | 0.00 | 0.00 | 75 | 1007.0 |
| 20260506001545 | 61 | 211 | 1.7 | 4.3 | 0.00 | 0.00 | 0.00 | 74 | 1006.8 |
| 20260506000056 | 62 | 0 | 0.0 | 1.7 | 0.00 | 0.00 | 0.00 | 73 | 1006.8 |
| 20260505234545 | 62 | 150 | 0.0 | 1.7 | 0.00 | 0.00 | 0.00 | 72 | 1006.9 |
| 20260505233045 | 63 | 0 | 0.0 | 3.5 | 0.00 | 0.00 | 0.00 | 70 | 1007.2 |
| 20260505231545 | 64 | 264 | 3.5 | 10.4 | 0.00 | 0.00 | 0.00 | 67 | 1007.1 |
| 20260505230058 | 64 | 188 | 7.8 | 20.9 | 0.00 | 0.00 | 0.00 | 64 | 1005.4 |
| 20260505224541 | 64 | 283 | 1.7 | 8.7 | 0.00 | 0.00 | 0.00 | 65 | 1004.7 |
| 20260505223040 | 65 | 190 | 2.6 | 12.2 | 0.00 | 0.00 | 0.00 | 63 | 1004.5 |
| 20260505221557 | 66 | 168 | 1.7 | 8.7 | 0.00 | 0.00 | 0.00 | 63 | 1004.2 |
| 20260505220057 | 66 | 199 | 2.6 | 10.4 | 0.00 | 0.00 | 0.00 | 63 | 1004.2 |
| 20260505214552 | 66 | 269 | 4.3 | 14.8 | 0.00 | 0.00 | 0.00 | 62 | 1003.7 |
| 20260505213041 | 67 | 200 | 5.2 | 20.0 | 0.00 | 0.00 | 0.00 | 62 | 1003.9 |
| 20260505211542 | 68 | 242 | 3.5 | 11.3 | 0.00 | 0.00 | 0.00 | 61 | 1003.8 |
| 20260505210051 | 68 | 167 | 2.6 | 19.1 | 0.00 | 0.00 | 0.00 | 60 | 1004.0 |
| 20260505204555 | 69 | 159 | 4.3 | 13.9 | 0.00 | 0.00 | 0.00 | 61 | 1004.0 |
| 20260505203119 | 70 | 192 | 3.5 | 13.0 | 0.00 | 0.00 | 0.00 | 59 | 1003.9 |
| 20260505201546 | 70 | 206 | 3.5 | 15.6 | 0.00 | 0.00 | 0.00 | 58 | 1004.0 |
| 20260505200048 | 70 | 183 | 3.5 | 12.2 | 0.00 | 0.00 | 0.00 | 60 | 1004.1 |
| 20260505194556 | 71 | 117 | 3.5 | 12.2 | 0.00 | 0.00 | 0.00 | 60 | 1004.3 |
| 20260505193047 | 71 | 319 | 2.6 | 16.5 | 0.00 | 0.00 | 0.00 | 59 | 1004.4 |
| 20260505191547 | 71 | 192 | 2.6 | 12.2 | 0.00 | 0.00 | 0.00 | 59 | 1004.7 |
| 20260505190053 | 71 | 159 | 4.3 | 14.8 | 0.00 | 0.00 | 0.00 | 61 | 1005.1 |
| 20260505184552 | 71 | 185 | 5.2 | 16.5 | 0.00 | 0.00 | 0.00 | 57 | 1005.1 |
| 20260505183051 | 73 | 224 | 4.3 | 13.0 | 0.00 | 0.00 | 0.00 | 55 | 1005.1 |
| 20260505181545 | 74 | 272 | 3.5 | 13.9 | 0.00 | 0.00 | 0.00 | 56 | 1005.2 |
| 20260505180046 | 73 | 264 | 4.3 | 17.4 | 0.00 | 0.00 | 0.00 | 53 | 1005.4 |
| 20260505174542 | 73 | 275 | 4.3 | 12.2 | 0.00 | 0.00 | 0.00 | 55 | 1005.5 |
| 20260505173040 | 72 | 207 | 4.3 | 13.0 | 0.00 | 0.00 | 0.00 | 55 | 1005.6 |
| 20260505171548 | 73 | 109 | 2.6 | 10.4 | 0.00 | 0.00 | 0.00 | 57 | 1006.2 |
| 20260505170046 | 71 | 142 | 3.5 | 13.0 | 0.00 | 0.00 | 0.00 | 57 | 1006.3 |
| 20260505164556 | 70 | 0 | 3.5 | 10.4 | 0.00 | 0.00 | 0.00 | 61 | 1006.5 |
| 20260505163045 | 68 | 220 | 2.6 | 8.7 | 0.00 | 0.00 | 0.00 | 61 | 1006.7 |
| 20260505161553 | 66 | 221 | 1.7 | 10.4 | 0.00 | 0.00 | 0.00 | 65 | 1007.0 |
| 20260505153055 | 67 | 275 | 4.3 | 11.3 | 0.00 | 0.00 | 0.00 | 60 | 1008.1 |
| 20260505151544 | 69 | 96 | 4.3 | 13.9 | 0.00 | 0.00 | 0.00 | 59 | 1007.8 |
| 20260505124549 | 63 | 200 | 2.6 | 7.0 | 0.00 | 0.00 | 0.00 | 65 | 1008.0 |
| 20260505123055 | 61 | 142 | 1.7 | 7.0 | 0.00 | 0.00 | 0.00 | 65 | 1008.0 |
| 20260505121546 | 61 | 161 | 2.6 | 9.6 | 0.00 | 0.00 | 0.00 | 66 | 1008.2 |
| 20260505120059 | 60 | 211 | 1.7 | 6.1 | 0.00 | 0.00 | 0.00 | 70 | 1008.4 |
| 20260505114545 | 57 | 178 | 1.7 | 5.2 | 0.00 | 0.00 | 0.00 | 73 | 1008.2 |
| 20260505113101 | 55 | 195 | 0.9 | 6.1 | 0.00 | 0.00 | 0.00 | 77 | 1008.1 |
| 20260505111549 | 53 | 103 | 0.9 | 3.5 | 0.00 | 0.00 | 0.00 | 81 | 1008.4 |
| 20260505101543 | 46 | 0 | 0.0 | 3.5 | 0.00 | 0.00 | 0.00 | 92 | 1008.3 |
| 20260505100042 | 45 | 0 | 0.0 | 0.9 | 0.00 | 0.00 | 0.00 | 94 | 1008.1 |
| 20260505094545 | 44 | 138 | 0.0 | 1.7 | 0.00 | 0.00 | 0.00 | 94 | 1008.1 |
| 20260505093051 | 44 | 257 | 0.0 | 1.7 | 0.00 | 0.00 | 0.00 | 93 | 1008.0 |
| 20260505091546 | 44 | 0 | 0.0 | 2.6 | 0.00 | 0.00 | 0.00 | 94 | 1008.0 |
| 20260505090045 | 43 | 0 | 0.0 | 0.0 | 0.00 | 0.00 | 0.00 | 94 | 1008.1 |
| 20260505084547 | 43 | 0 | 0.0 | 0.0 | 0.00 | 0.00 | 0.00 | 94 | 1008.2 |
| 20260505083053 | 43 | 0 | 0.0 | 0.0 | 0.00 | 0.00 | 0.00 | 94 | 1008.3 |
| 20260505081551 | 42 | 0 | 0.0 | 0.0 | 0.00 | 0.00 | 0.00 | 94 | 1008.3 |
| 20260505080047 | 43 | 0 | 0.0 | 0.0 | 0.00 | 0.00 | 0.00 | 93 | 1008.3 |
| 20260505074545 | 43 | 0 | 0.0 | 0.0 | 0.00 | 0.00 | 0.00 | 93 | 1008.1 |
| 20260505073044 | 43 | 0 | 0.0 | 0.0 | 0.00 | 0.00 | 0.00 | 93 | 1008.1 |
| 20260505071545 | 43 | 0 | 0.0 | 0.0 | 0.00 | 0.00 | 0.00 | 91 | 1008.2 |
| 20260505070046 | 43 | 0 | 0.0 | 0.0 | 0.00 | 0.00 | 0.00 | 91 | 1008.1 |
| 20260505064540 | 44 | 0 | 0.0 | 0.0 | 0.00 | 0.00 | 0.00 | 91 | 1008.1 |
| 20260505063045 | 44 | 0 | 0.0 | 0.9 | 0.00 | 0.00 | 0.00 | 91 | 1008.1 |
| 20260505061545 | 44 | 0 | 0.0 | 0.0 | 0.00 | 0.00 | 0.00 | 90 | 1008.2 |
| 20260505060046 | 44 | 0 | 0.0 | 0.9 | 0.00 | 0.00 | 0.00 | 90 | 1008.2 |
| 20260505054546 | 44 | 0 | 0.0 | 0.0 | 0.00 | 0.00 | 0.00 | 90 | 1008.2 |
| 20260505053110 | 44 | 0 | 0.0 | 0.9 | 0.00 | 0.00 | 0.00 | 91 | 1008.1 |
| 20260505051539 | 44 | 181 | 0.9 | 1.7 | 0.00 | 0.00 | 0.00 | 89 | 1007.9 |
| 20260505041544 | 47 | 0 | 0.0 | 0.0 | 0.00 | 0.00 | 0.00 | 86 | 1007.7 |
| 20260505040041 | 47 | 0 | 0.0 | 0.0 | 0.00 | 0.00 | 0.00 | 85 | 1007.6 |
| 20260505034601 | 48 | 0 | 0.0 | 0.0 | 0.00 | 0.00 | 0.00 | 83 | 1007.4 |
| 20260505033050 | 48 | 0 | 0.0 | 1.7 | 0.00 | 0.00 | 0.00 | 83 | 1007.4 |
| 20260505031542 | 49 | 0 | 0.0 | 1.7 | 0.00 | 0.00 | 0.00 | 81 | 1007.3 |
| 20260505030049 | 49 | 0 | 0.0 | 0.0 | 0.00 | 0.00 | 0.00 | 80 | 1007.5 |